This demonstration page uses our WeatherBlox Daily Observations layout. Learn more.

Left ArrowRight Arrow

Hourly Observations for October 20, 2016

Temp ( °F °C ) Dew Point ( °F °C ) Humidity (%) Winds ( mph kmh ) Pressure ( in mb ) Visibility ( mi km ) Precip ( " mm )
12:54 am 00:54 Cloudy 51 10.6 48 8.9 89 89 N 9 15 30.27 1025 10 16.0934 0 0
1:54 am 01:54 Partly Cloudy 50 10 48 8.9 93 93 N 7 11 30.29 1026 10 16.0934 0 0
2:54 am 02:54 Cloudy 50 10 47 8.3 89 89 N 12 19 30.31 1026 10 16.0934 0 0
3:54 am 03:54 Cloudy 49 9.4 47 8.3 93 93 N 10 17 30.31 1027 9 14.48406 0 0
4:54 am 04:54 Cloudy with Light Rain 49 9.4 47 8.3 93 93 N 10 17 30.33 1027 8 12.87472 0 0.0254
5:54 am 05:54 Cloudy 49 9.4 46 7.8 90 90 N 13 20 30.36 1028 8 12.87472 0 0.0254
6:15 am 06:15 Cloudy 48 8.9 45 7.2 89 89 N 14 22 30.36 1028 8 12.87472 0 0
6:40 am 06:40 Cloudy 46 8 45 7 93 93 NNW 13 20 30.39 1029 8 12.87472 0 0
6:47 am 06:47 Cloudy 47 8.3 44 6.7 90 90 NNW 13 20 30.39 1029 8 12.87472 0 0
6:54 am 06:54 Cloudy 46 7.8 43 6.1 89 89 NNW 14 22 30.38 1029 8 12.87472 0 0
7:19 am 07:19 Mostly Cloudy 45 7.2 42 5.6 90 90 N 13 20 30.39 1029 8 12.87472 0 0
7:37 am 07:37 Partly Cloudy 45 7 43 6 93 93 N 12 19 30.42 1030 8 12.87472 0 0
7:54 am 07:54 Mostly Sunny 44 6.7 42 5.6 93 93 N 10 17 30.39 1029 8 12.87472 0 0
8:24 am 08:24 Mostly Cloudy with Mist and Fog 45 7 43 6 93 93 N 10 17 30.42 1030 6 9.65604 0 0
8:39 am 08:39 Mostly Cloudy with Mist and Fog 44 6.7 41 5 89 89 NNW 12 19 30.42 1030 6 9.65604 0 0
8:49 am 08:49 Partly Cloudy with Mist and Fog 45 7 41 5 87 87 N 12 19 30.42 1030 6 9.65604 0 0
8:54 am 08:54 Mostly Sunny 44 6.7 41 5 89 89 N 12 19 30.41 1030 7 11.26538 0 0
9:54 am 09:54 Mostly Sunny 47 8.3 41 5 80 80 N 10 17 30.43 1030 10 16.0934 0 0
10:54 am 10:54 Sunny 50 10 39 3.9 66 66 NNE 8 13 30.43 1031 10 16.0934 0 0
11:54 am 11:54 Sunny 52 11.1 39 3.9 61 61 N 3 6 30.42 1030 10 16.0934 0 0
12:54 pm 12:54 Sunny 55 12.8 40 4.4 57 57 NNE 7 11 30.4 1029 10 16.0934 0 0
1:54 pm 13:54 Sunny 57 13.9 41 5 55 55 NNW 9 15 30.37 1029 10 16.0934 0 0
2:54 pm 14:54 Sunny 59 15 41 5 51 51 N 8 13 30.35 1028 10 16.0934 0 0
3:54 pm 15:54 Mostly Sunny 59 15 41 5 51 51 NNW 5 7 30.35 1028 10 16.0934 0 0
4:54 pm 16:54 Cloudy 57 13.9 41 5 55 55 NNW 10 17 30.34 1028 10 16.0934 0 0
5:54 pm 17:54 Cloudy 56 13.3 42 5.6 60 60 N 7 11 30.34 1027 10 16.0934 0 0
6:54 pm 18:54 Mostly Cloudy 52 11.1 41 5 66 66 NNE 3 6 30.34 1027 10 16.0934 0 0
7:54 pm 19:54 Mostly Cloudy 52 11.1 42 5.6 69 69 NW 3 6 30.35 1028 10 16.0934 0 0
8:54 pm 20:54 Clear 48 8.9 41 5 77 77 Calm 30.35 1028 10 16.0934 0 0
9:54 pm 21:54 Clear 47 8.3 42 5.6 83 83 Calm 30.35 1028 10 16.0934 0 0
10:54 pm 22:54 Clear 41 5 39 3.9 93 93 Calm 30.35 1028 10 16.0934 0 0
11:54 pm 23:54 Clear 43 6.1 39 3.9 86 86 Calm 30.34 1027 10 16.0934 0 0

Powered by AerisWeather